Weather History for KANW - December, 2012

Change the Weather History Date:

Monday, December 10, 2012

  Actual Average Record
Temperature  
Mean Temperature 16 °F -  
Max Temperature 33 °F 39 °F 55 °F (2006)
Min Temperature -1 °F 19 °F -2 °F (2000)
Degree Days  
Heating Degree Days 49    
Moisture  
Dew Point 8 °F    
Average Humidity 66    
Maximum Humidity 83    
Minimum Humidity 44    
Precipitation  
Precipitation 0.02 in - - ()
Sea Level Pressure  
Sea Level Pressure 29.88 in    
Wind  
Wind Speed 8 mph (West)    
Max Wind Speed 22 mph    
Max Gust Speed 30 mph    
Visibility 10 miles    
Events      
Averages and records for this station are not official NWS values.
T = Trace of Precipitation, MM = Missing Value Source: NWS Daily Summary

Daily Weather History Graph

Daily Weather History Graph

Search for Another Location

Airport or City:

Trip Planner

Search our weather history database for the weather conditions in past years. The results will help you decide how hot, cold, wet, or windy it might be!

Date:

Astronomy

Dec. 10, 2012 Rise Set
Actual Time 7:59 AM CST 5:06 PM CST
Civil Twilight 7:27 AM CST 5:38 PM CST
Nautical Twilight 6:51 AM CST 6:14 PM CST
Astronomical Twilight 6:17 AM CST 6:48 PM CST
Moon 4:42 AM CST (12/10) 2:59 PM CST (12/10)
Length of Visible Light 10h 11m
Length of Day
9h 07m
Waning Crescent, 10% of the Moon is Illuminated
Dec 10
Waning Crescent
Dec 13
New
Dec 19
First Quarter
Dec 28
Full
Jan 4
Last Quarter

Hourly Weather History & Observations

Time (CST) Temp. Windchill Dew Point Humidity Pressure Visibility Wind Dir Wind Speed Gust Speed Precip Events Conditions
12:15 AM 1.9 °F -9.2 °F -4.0 °F 76% 30.14 in 10.0 mi West 5.8 mph - N/A   Clear
12:35 AM 1.6 °F -6.0 °F -4.0 °F 77% 30.12 in 10.0 mi West 3.5 mph - N/A   Clear
12:55 AM 0.5 °F -9.3 °F -4.9 °F 78% 30.10 in 10.0 mi WSW 4.6 mph - N/A   Clear
1:15 AM -0.8 °F - -6.0 °F 79% 30.09 in 10.0 mi Calm Calm - N/A   Clear
1:35 AM -0.4 °F -13.4 °F -5.6 °F 79% 30.08 in 10.0 mi West 6.9 mph - N/A   Clear
1:55 AM 0.5 °F -12.3 °F -4.7 °F 79% 30.07 in 10.0 mi WSW 6.9 mph - N/A   Clear
2:15 AM -0.2 °F -11.8 °F -5.6 °F 78% 30.05 in 10.0 mi SSW 5.8 mph - N/A   Clear
2:35 AM -0.4 °F -13.4 °F -5.8 °F 78% 30.04 in 10.0 mi SW 6.9 mph - N/A   Clear
2:55 AM 1.2 °F -12.7 °F -4.2 °F 78% 30.04 in 10.0 mi SW 8.1 mph - N/A   Clear
3:15 AM 0.7 °F -10.7 °F -4.9 °F 77% 30.03 in 10.0 mi SW 5.8 mph - N/A   Clear
3:35 AM -0.2 °F -10.1 °F -5.8 °F 77% 30.02 in 10.0 mi SSW 4.6 mph - N/A   Clear
3:55 AM 0.7 °F -7.1 °F -5.3 °F 76% 30.00 in 10.0 mi SSW 3.5 mph - N/A   Clear
4:15 AM -0.2 °F - -6.3 °F 75% 29.99 in 10.0 mi Calm Calm - N/A   Clear
4:35 AM -1.8 °F -13.7 °F -8.0 °F 75% 29.97 in 10.0 mi South 5.8 mph - N/A   Clear
4:55 AM -1.5 °F -13.3 °F -7.6 °F 75% 29.95 in 10.0 mi South 5.8 mph - N/A   Clear
5:15 AM -0.8 °F -13.9 °F -6.9 °F 75% 29.93 in 10.0 mi South 6.9 mph - N/A   Clear
5:35 AM 3.7 °F -11.6 °F -2.7 °F 74% 29.92 in 10.0 mi SSW 10.4 mph - N/A   Clear
5:55 AM 4.8 °F -11.1 °F -2.4 °F 72% 29.91 in 10.0 mi SW 11.5 mph - N/A   Clear
6:15 AM 4.8 °F -11.1 °F -2.4 °F 72% 29.90 in 10.0 mi SSW 11.5 mph - N/A   Clear
6:35 AM 4.6 °F -11.3 °F -2.7 °F 72% 29.89 in 10.0 mi SW 11.5 mph - N/A   Clear
6:55 AM 4.6 °F -9.5 °F -2.6 °F 72% 29.89 in 10.0 mi SSW 9.2 mph - N/A   Clear
7:15 AM 4.6 °F -9.5 °F -2.4 °F 73% 29.88 in 10.0 mi SSW 9.2 mph - N/A   Clear
7:35 AM 5.5 °F -10.2 °F -1.8 °F 72% 29.87 in 10.0 mi SSW 11.5 mph - N/A   Clear
7:55 AM 7.3 °F -7.9 °F -0.6 °F 70% 29.86 in 10.0 mi SSW 11.5 mph - N/A   Clear
8:15 AM 7.5 °F -7.7 °F -0.8 °F 69% 29.85 in 10.0 mi SW 11.5 mph - N/A   Clear
8:35 AM 8.1 °F -7.0 °F -0.2 °F 69% 29.85 in 10.0 mi SW 11.5 mph - N/A   Clear
8:55 AM 9.3 °F -3.8 °F 0.5 °F 67% 29.85 in 10.0 mi SW 9.2 mph - N/A   Clear
9:15 AM 10.8 °F -1.1 °F 2.1 °F 68% 29.85 in 10.0 mi SW 8.1 mph - N/A   Clear
9:35 AM 12.7 °F -0.4 °F 3.6 °F 67% 29.85 in 10.0 mi SW 10.4 mph - N/A   Clear
9:55 AM 15.8 °F 3.4 °F 5.0 °F 62% 29.85 in 10.0 mi SW 10.4 mph - N/A   Clear
10:15 AM 17.8 °F 8.5 °F 6.4 °F 61% 29.84 in 10.0 mi WSW 6.9 mph - N/A   Clear
10:35 AM 20.1 °F 10.3 °F 7.7 °F 59% 29.84 in 10.0 mi West 8.1 mph - N/A   Clear
10:55 AM 22.1 °F 12.0 °F 7.7 °F 54% 29.84 in 10.0 mi West 9.2 mph - N/A   Clear
11:15 AM 23.2 °F 12.0 °F 9.5 °F 56% 29.84 in 10.0 mi West 11.5 mph - N/A   Clear
11:35 AM 24.8 °F 13.4 °F 8.6 °F 50% 29.83 in 10.0 mi West 12.7 mph - N/A   Clear
11:55 AM 25.9 °F 15.3 °F 9.3 °F 50% 29.82 in 10.0 mi West 11.5 mph - N/A   Clear
12:15 PM 27.3 °F 17.7 °F 9.5 °F 47% 29.81 in 10.0 mi WNW 10.4 mph - N/A   Clear
12:35 PM 28.0 °F 18.1 °F 9.3 °F 45% 29.81 in 10.0 mi NW 11.5 mph - N/A   Clear
12:55 PM 28.4 °F 18.5 °F 8.8 °F 44% 29.80 in 10.0 mi NW 11.5 mph - N/A   Clear
1:15 PM 29.7 °F 21.3 °F 10.0 °F 44% 29.80 in 10.0 mi NW 9.2 mph - N/A   Clear
1:35 PM 31.5 °F 23.5 °F 11.8 °F 44% 29.79 in 10.0 mi NW 9.2 mph - N/A   Clear
1:55 PM 31.8 °F 23.3 °F 11.8 °F 44% 29.79 in 10.0 mi NW 10.4 mph - N/A   Scattered Clouds
2:15 PM 32.0 °F 24.8 °F 12.2 °F 44% 29.78 in 10.0 mi NW 8.1 mph - N/A   Overcast
2:35 PM 32.9 °F 24.7 °F 14.9 °F 48% 29.78 in 10.0 mi WNW 10.4 mph - N/A   Scattered Clouds
2:55 PM 33.4 °F 25.4 °F 17.1 °F 51% 29.78 in 10.0 mi NW 10.4 mph - N/A   Scattered Clouds
3:15 PM 33.8 °F 25.3 °F 18.1 °F 53% 29.78 in 10.0 mi WNW 11.5 mph - N/A   Scattered Clouds
3:35 PM 33.6 °F 25.0 °F 18.5 °F 54% 29.78 in 10.0 mi NW 11.5 mph - N/A   Mostly Cloudy
3:55 PM 33.4 °F 25.4 °F 19.4 °F 56% 29.79 in 10.0 mi WNW 10.4 mph 16.1 mph N/A   Overcast
4:15 PM 33.4 °F 23.9 °F 18.5 °F 54% 29.80 in 10.0 mi West 13.8 mph - N/A   Overcast
4:35 PM 32.2 °F 24.4 °F 18.3 °F 57% 29.81 in 10.0 mi WNW 9.2 mph 16.1 mph N/A   Scattered Clouds
4:55 PM 31.6 °F 24.4 °F 18.9 °F 59% 29.81 in 10.0 mi WNW 8.1 mph - N/A   Scattered Clouds
5:15 PM 31.3 °F 25.6 °F 19.4 °F 61% 29.81 in 10.0 mi WNW 5.8 mph - 0.02 in   Mostly Cloudy
5:35 PM 31.1 °F 26.4 °F 19.8 °F 63% 29.81 in 10.0 mi West 4.6 mph - 0.02 in   Overcast
5:55 PM 29.5 °F 23.4 °F 19.6 °F 67% 29.82 in 10.0 mi West 5.8 mph - 0.02 in   Overcast
6:15 PM 29.8 °F 23.9 °F 20.8 °F 69% 29.82 in 10.0 mi West 5.8 mph - N/A   Overcast
6:35 PM 30.7 °F 26.0 °F 21.2 °F 68% 29.82 in 10.0 mi West 4.6 mph - N/A   Overcast
6:55 PM 31.1 °F 25.4 °F 21.7 °F 68% 29.83 in 10.0 mi West 5.8 mph - N/A   Overcast
7:15 PM 30.9 °F 24.3 °F 21.2 °F 67% 29.83 in 10.0 mi West 6.9 mph - N/A   Overcast
7:35 PM 29.8 °F 23.0 °F 20.8 °F 69% 29.83 in 10.0 mi West 6.9 mph - N/A   Overcast
7:55 PM 30.4 °F 21.5 °F 20.7 °F 67% 29.84 in 10.0 mi West 10.4 mph - N/A   Overcast
8:15 PM 30.0 °F 22.4 °F 20.8 °F 69% 29.85 in 10.0 mi WNW 8.1 mph - N/A   Mostly Cloudy
8:35 PM 30.2 °F 21.9 °F 21.2 °F 69% 29.85 in 10.0 mi NW 9.2 mph - N/A   Overcast
8:55 PM 31.6 °F 19.0 °F 21.6 °F 66% 29.86 in 10.0 mi NW 21.9 mph 29.9 mph N/A   Overcast
9:15 PM 31.1 °F 18.3 °F 20.3 °F 64% 29.87 in 10.0 mi NW 21.9 mph 27.6 mph N/A   Overcast
9:35 PM 30.4 °F 18.4 °F 18.3 °F 61% 29.87 in 10.0 mi NW 18.4 mph 23.0 mph N/A   Overcast
9:55 PM 28.6 °F 19.3 °F 18.1 °F 65% 29.87 in 10.0 mi NW 10.4 mph - N/A   Scattered Clouds
10:15 PM 27.5 °F 19.3 °F 18.0 °F 67% 29.87 in 10.0 mi NW 8.1 mph - N/A   Clear
10:35 PM 26.4 °F 18.0 °F 17.6 °F 69% 29.88 in 10.0 mi NW 8.1 mph - N/A   Scattered Clouds
10:55 PM 24.8 °F 19.1 °F 17.6 °F 74% 29.88 in 10.0 mi WNW 4.6 mph - N/A   Scattered Clouds
11:15 PM 23.0 °F 14.7 °F 16.9 °F 77% 29.88 in 10.0 mi WNW 6.9 mph - N/A   Clear
11:35 PM 23.0 °F 15.8 °F 16.7 °F 77% 29.89 in 10.0 mi West 5.8 mph - N/A   Clear
11:55 PM 21.2 °F 11.7 °F 16.7 °F 83% 29.89 in 10.0 mi West 8.1 mph - N/A   Clear